Regional Weather Roundup
Issued by NWS Little Rock, AR

Home | Current Version | Previous Version | Text Only | Print | Product List | Glossary Off
Versions: 1 2 3 4 5 6 7 8 9 10 11 12 13 14 15 16 17 18 19 20 21 22 23 24 25 26 27

000
ASUS44 KLZK 240605
RWRLZK

WEATHER ROUNDUP FOR ARKANSAS
NATIONAL WEATHER SERVICE LITTLE ROCK AR
100 AM CDT THU APR 24 2014

NOTE: "FAIR" INDICATES FEW OR NO CLOUDS BELOW 12,000 FEET WITH NO
SIGNIFICANT WEATHER AND/OR OBSTRUCTIONS TO VISIBILITY.

ARZ001-003-010-029-240700-
NORTHWEST ARKANSAS

CITY           SKY/WX    TMP DP  RH WIND       PRES   REMARKS
FAYETTEVILLE   FAIR      66  47  50 S9        29.85S
6HR MIN TEMP:  64; 6HR MAX TEMP:  75;

FORT SMITH     FAIR      64  54  69 NE6       29.85R
6HR MIN TEMP:  63; 6HR MAX TEMP:  81;

HARRISON       FAIR      60  44  55 SE8       29.88S
6HR MIN TEMP:  59; 6HR MAX TEMP:  73;

BENTONVILLE    FAIR      64  45  48 SE9       29.86S
6HR MIN TEMP:  64; 6HR MAX TEMP:  73;

ROGERS         FAIR      65  45  48 SE12G17   29.86S
6HR MIN TEMP:  65; 6HR MAX TEMP:  75;

SILOAM SPGS    FAIR      66  46  48 SE12      29.85S
6HR MIN TEMP:  66; 6HR MAX TEMP:  75;

HIGHFILL       FAIR      62  49  62 SE9       29.84R
6HR MIN TEMP:  61; 6HR MAX TEMP:  74;

$$

ARZ004-005-016-240700-
NORTH CENTRAL ARKANSAS

CITY           SKY/WX    TMP DP  RH WIND       PRES   REMARKS
BATESVILLE     FAIR      61  43  51 E6        29.90F
6HR MIN TEMP:  59; 6HR MAX TEMP:  72;

FLIPPIN        FAIR      57  41  54 CALM      29.89S
6HR MIN TEMP:  55; 6HR MAX TEMP:  73;

MTN HOME       FAIR      60  41  49 SE5       29.88S
6HR MIN TEMP:  60; 6HR MAX TEMP:  73;

$$

ARZ040-041-240700-
WEST CENTRAL ARKANSAS

CITY           SKY/WX    TMP DP  RH WIND       PRES   REMARKS
MENA           FAIR     N/A N/A N/A SE5       29.87R
MOUNT IDA      FAIR      64  48  56 VRB5      29.85S
6HR MIN TEMP:  64; 6HR MAX TEMP:  76;

$$

ARZ009-017-025-026-028-240700-
NORTHEAST ARKANSAS

CITY           SKY/WX    TMP DP  RH WIND       PRES   REMARKS
CORNING        FAIR      55  41  58 E8        29.94F
JONESBORO      FAIR      53  43  68 E5        29.93F
6HR MIN TEMP:  53; 6HR MAX TEMP:  71;

NEWPORT        FAIR      58  46  64 SE10      29.93F
6HR MIN TEMP:  58; 6HR MAX TEMP:  71;

WALNUT RIDGE   FAIR      55  39  54 E8        29.92F
6HR MIN TEMP:  55; 6HR MAX TEMP:  72;

BLYTHEVILLE    FAIR      56  41  57 E9        29.95S
6HR MIN TEMP:  53; 6HR MAX TEMP:  67;

$$

ARZ022-023-033-042-044-240700-
CENTRAL ARKANSAS

CITY           SKY/WX    TMP DP  RH WIND       PRES   REMARKS
LITTLE ROCK    MOCLDY    60  46  59 CALM      29.89F
6HR MIN TEMP:  58; 6HR MAX TEMP:  75;

N LITTLE ROCK    N/A     62  49  61 SE6       29.89F
6HR MIN TEMP:  62; 6HR MAX TEMP:  74;

JACKSONVILLE   FAIR      55  47  75 E3        29.89F
6HR MIN TEMP:  54; 6HR MAX TEMP:  75;

SEARCY         FAIR      57  48  72 CALM      29.91F
6HR MIN TEMP:  53; 6HR MAX TEMP:  74;

HOT SPRINGS    FAIR      59  47  64 E8        29.88F
6HR MIN TEMP:  59; 6HR MAX TEMP:  79;

RUSSELLVILLE   FAIR      63  46  54 CALM      29.87S
6HR MIN TEMP:  62; 6HR MAX TEMP:  76;

CLINTON        FAIR      52  50  93 CALM      29.91R
$$

ARZ036-240700-
EAST ARKANSAS

CITY           SKY/WX    TMP DP  RH WIND       PRES   REMARKS
WEST MEMPHIS   FAIR      57  41  55 E5        29.93S HAZE
6HR MIN TEMP:  57; 6HR MAX TEMP:  75;

$$

ARZ050-053-066-070-073-240700-
SOUTHWEST ARKANSAS

CITY           SKY/WX    TMP DP  RH WIND       PRES   REMARKS
ARKADELPHIA    FAIR      60  58  93 CALM      29.87F
6HR MIN TEMP:  60; 6HR MAX TEMP:  79; 6HR PCP: TRACE;

CAMDEN         FAIR      57  48  72 MISG      29.88S
TEXARKANA      FAIR      67  50  54 SE8       29.85F
6HR MIN TEMP:  67; 6HR MAX TEMP:  78;

EL DORADO      FAIR      62  47  57 E3        29.88F
6HR MIN TEMP:  61; 6HR MAX TEMP:  77;

DE QUEEN       FAIR      63  56  78 E6        29.83R
6HR MIN TEMP:  63; 6HR MAX TEMP:  78;

$$

ARZ056-057-069-240700-
SOUTHEAST ARKANSAS

CITY           SKY/WX    TMP DP  RH WIND       PRES   REMARKS
PINE BLUFF     FAIR      56  49  77 E5        29.90F
6HR MIN TEMP:  56; 6HR MAX TEMP:  73;

STUTTGART      FAIR      63  45  51 SE7       29.91F
6HR MIN TEMP:  61; 6HR MAX TEMP:  75;

MONTICELLO     FAIR      57  49  74 SE3       29.89F
6HR MIN TEMP:  56; 6HR MAX TEMP:  76;


$$





USA.gov is the U.S. government's official web portal to all federal, state and local government web resources and services.